[[{"header":{"parameterUnit":"m.s-1","parameterCategory":2,"la1":30.2991,"la2":30.254,"lo1":-89.0895,"lo2":-89.0444,"dy":0.0017,"dx":0.0017,"nx":28,"ny":28,"refTime":"2024-04-27T21:00:00:Z","depth":"0","parameterNumber":2,"parameterNumberName":"U-component_of_CURRENTS"},"data":[0,0,0,0,0,0,0,0,0,0,0,0,0,0,0,0,0,0,0,0,0,0,0,0,0,0,0,0,0,0,0,0,0,0,0,0,0,0,0,0,0,0,0,0,0,0,0,0,0,0,0,0,0,0,0,0,0,0,0.2746,0.2746,0,0.2706,0.2705,0.2704,0.2662,0.2662,0.2661,0.2661,0.2632,0.2631,0.2631,0,0,0,0,0,0,0,0,0,0,0,0,0,0.2824,0.2823,0.2746,0.2746,0.2746,0.2706,0.2705,0.2704,0.2662,0.2662,0.2661,0.2661,0.2632,0.2631,0.2631,0,0,0,0,0,0,0,0,0,0,0,0,0,0.2785,0.2822,0.2746,0.2722,0.272,0.2706,0.2705,0.2704,0.2662,0.2662,0.2661,0.2661,0.2632,0.2631,0.2631,0.2635,0,0,0.2628,0.2628,0,0,0,0,0,0,0,0,0.2787,0.2782,0.2726,0.2724,0.2721,0.2691,0.2722,0.2683,0.2662,0.2681,0.2661,0.266,0.2655,0.2652,0.2641,0.2634,0.2633,0.2628,0.2628,0.2627,0.2627,0,0,0,0,0,0,0,0.279,0.2783,0.2727,0.2726,0.2723,0.2726,0.2719,0.2714,0.2669,0.2679,0.2677,0.2677,0.2653,0.2642,0.264,0.2632,0.2628,0.2628,0.2627,0.2627,0.2647,0.2648,0,0,0,0,0,0,0.2799,0.2786,0.2729,0.2726,0.2757,0.2725,0.2718,0.2699,0.2669,0.2664,0.2678,0.2675,0.2643,0.2641,0.2639,0.2662,0.2627,0.2627,0.2626,0.2646,0.2647,0.2648,0,0,0,0,0,0,0.2801,0.2794,0.273,0.2759,0.2751,0.2725,0.2704,0.2698,0.2692,0.2668,0.2663,0.2679,0.2643,0.264,0.2639,0.2659,0.2626,0.2626,0.2645,0.2646,0.2648,0.2695,0,0,0,0,0,0,0.2803,0.2794,0.2787,0.2759,0.275,0.2729,0.2704,0.2698,0.2695,0.2691,0.2667,0.2663,0.2642,0.264,0.2638,0.2658,0.2625,0.2643,0.2645,0.2647,0.2692,0.2698,0.2703,0,0,0,0,0,0.2805,0.2793,0.2786,0.278,0.2739,0.273,0.2726,0.2704,0.2695,0.2696,0.2679,0.2664,0.265,0.264,0.2638,0.2658,0.2643,0.2645,0.2647,0.269,0.2697,0.2702,0,0,0,0,0,0,0.2824,0.2788,0.2779,0.2757,0.2751,0.2724,0.2722,0.2713,0.2699,0.2697,0.2672,0.2667,0.2677,0.2662,0.2651,0.267,0.2646,0.2648,0.268,0.2686,0.2691,0.2696,0.2625,0,0,0,0,0,0.2827,0.2805,0.2785,0.2771,0.2769,0.275,0.2746,0.2733,0.2718,0.2711,0.2696,0.2685,0.2684,0.268,0.2674,0.2681,0.2691,0.2695,0.27,0.2704,0.2707,0.2745,0.2754,0.2655,0.2655,0.2655,0,0,0.2827,0.281,0.2795,0.2774,0.2765,0.2763,0.2745,0.2741,0.2742,0.2712,0.2709,0.2705,0.2691,0.2698,0.2702,0.2687,0.274,0.2707,0.2711,0.2712,0.2748,0.2758,0.2766,0.2657,0.2656,0.2656,0,0,0.2825,0.2808,0.2793,0.2793,0.2788,0.2778,0.2783,0.2766,0.2761,0.2761,0.2746,0.2754,0.2741,0.2739,0.2737,0.277,0.277,0.2771,0.2797,0.2834,0.2842,0.285,0.2885,0.2895,0.277,0.277,0.277,0,0.2831,0.2803,0.2792,0.2793,0.2791,0.2788,0.2785,0.2787,0.2773,0.2778,0.2766,0.2773,0.2762,0.2781,0.2789,0.2783,0.2803,0.2773,0.2841,0.2849,0.2856,0.289,0.2901,0.2773,0.2772,0.2772,0.2772,0,0.2818,0.2808,0.2806,0.2797,0.2801,0.2798,0.2804,0.2815,0.2813,0.2812,0.2834,0.2825,0.283,0.2833,0.2817,0.2863,0.2862,0.2848,0.2826,0.2869,0.2902,0.2913,0.2776,0.2775,0.2775,0.2774,0,0,0.2781,0.279,0.2788,0.2789,0.28,0.2797,0.2822,0.2832,0.2848,0.2856,0.2877,0.2885,0.2892,0.289,0.2885,0.291,0.2977,0.29,0.2901,0.2937,0.3066,0.3076,0.3088,0.2978,0.298,0.2982,0.3073,0,0.2768,0.2766,0.2774,0.2776,0.2773,0.2798,0.2816,0.2838,0.2857,0.2883,0.2904,0.2917,0.2912,0.2917,0.295,0.2969,0.3005,0.2954,0.3017,0.3019,0.3024,0.31,0.3038,0.3115,0.3083,0.3085,0.3086,0,0.2733,0.274,0.2736,0.2759,0.2761,0.277,0.2803,0.2824,0.2879,0.2897,0.2939,0.2954,0.3004,0.2984,0.3066,0.3036,0.3059,0.3072,0.3076,0.3074,0.3049,0.3065,0.3135,0.3086,0.3102,0.3101,0.31,0,0.2689,0.2705,0.2698,0.2705,0.2738,0.2751,0.2774,0.2825,0.2848,0.2913,0.2945,0.3002,0.3039,0.3083,0.3131,0.3102,0.3219,0.318,0.3214,0.3215,0.3168,0.3162,0.3197,0.3242,0.3242,0.3242,0.3241,0,0.2652,0.2644,0.2679,0.2677,0.268,0.2722,0.2739,0.2782,0.2845,0.2878,0.2952,0.2996,0.3067,0.3141,0.3164,0.3244,0.3258,0.3243,0.3249,0.3184,0.3178,0.3136,0.3097,0.3245,0.3244,0.3244,0.3243,0,0.259,0.2613,0.2605,0.2642,0.2654,0.2657,0.271,0.2729,0.2811,0.2866,0.2891,0.301,0.3117,0.3195,0.3277,0.3296,0.3273,0.3369,0.3293,0.3289,0.3254,0.322,0.3082,0.2988,0.3419,0.342,0.3421,0,0.2552,0.2545,0.2567,0.2567,0.2579,0.26,0.2614,0.2691,0.2723,0.2867,0.2891,0.3031,0.3106,0.3269,0.3344,0.3427,0.3304,0.3401,0.3329,0.327,0.3237,0.3041,0.2956,0.3288,0.3287,0.3287,0.3287,0,0.2491,0.2497,0.2501,0.2494,0.2501,0.2503,0.2542,0.2556,0.266,0.2731,0.2831,0.2908,0.3121,0.3202,0.3354,0.3387,0.325,0.3397,0.3354,0.3164,0.2934,0.2841,0.3208,0.3284,0.3284,0.3285,0.3285,0.3285,0.2445,0.2422,0.2427,0.2402,0.2408,0.2385,0.2343,0.2412,0.2447,0.251,0.2691,0.2775,0.3035,0.3248,0.3279,0.3342,0.3235,0.3276,0.3251,0.3064,0.2933,0.3304,0.3374,0.3374,0.3375,0.3375,0.3376,0,0.2361,0.2346,0.2335,0.2288,0.2229,0.2271,0.2267,0.2209,0.2197,0.2358,0.244,0.2681,0.2862,0.3062,0.3282,0.3218,0.3026,0.3146,0.2864,0.2796,0.3173,0.3131,0.3129,0.3129,0.3129,0.3129,0.3129,0.3129,0.2324,0.226,0.2233,0.2102,0.2068,0.1939,0.1894,0.1865,0.1938,0.2016,0.2143,0.2306,0.2681,0.3047,0.315,0.3096,0.2852,0.2737,0.268,0.2994,0.3003,0.3011,0.2964,0.2927,0.2926,0.2181,0.2176,0.2172]},{"header":{"parameterUnit":"m.s-1","parameterCategory":2,"la1":30.2991,"la2":30.254,"lo1":-89.0895,"lo2":-89.0444,"dy":0.0017,"dx":0.0017,"nx":28,"ny":28,"refTime":"2024-04-27T21:00:00:Z","depth":"0","parameterNumber":3,"parameterNumberName":"V-component_of_CURRENTS"},"data":[0,0,0,0,0,0,0,0,0,0,0,0,0,0,0,0,0,0,0,0,0,0,0,0,0,0,0,0,0,0,0,0,0,0,0,0,0,0,0,0,0,0,0,0,0,0,0,0,0,0,0,0,0,0,0,0,0,0,-0.0022,-0.0023,0,-0.0109,-0.011,-0.0111,-0.015,-0.015,-0.015,-0.015,-0.026,-0.0263,-0.0266,0,0,0,0,0,0,0,0,0,0,0,0,0,0.0076,0.0075,-0.0022,-0.0023,-0.0024,-0.0109,-0.011,-0.0112,-0.015,-0.015,-0.015,-0.015,-0.0259,-0.0262,-0.0266,0,0,0,0,0,0,0,0,0,0,0,0,0,0.0016,0.0074,-0.0022,-0.0054,-0.0058,-0.0109,-0.011,-0.0112,-0.015,-0.015,-0.015,-0.015,-0.0258,-0.0262,-0.0266,-0.0296,0,0,-0.028,-0.0282,0,0,0,0,0,0,0,0,0.0019,0.0012,-0.0048,-0.0052,-0.0056,-0.0119,-0.0116,-0.0175,-0.015,-0.0115,-0.015,-0.015,-0.0215,-0.0223,-0.0239,-0.0301,-0.0306,-0.028,-0.0283,-0.0285,-0.0286,0,0,0,0,0,0,0,0.0024,0.0016,-0.0056,-0.005,-0.0055,-0.0076,-0.0084,-0.0127,-0.0165,-0.0118,-0.0121,-0.0131,-0.0217,-0.0234,-0.0242,-0.0308,-0.028,-0.0284,-0.0287,-0.0289,-0.0392,-0.0392,0,0,0,0,0,0,0.0035,0.002,-0.0054,-0.0059,-0.0018,-0.0078,-0.0087,-0.0099,-0.0164,-0.0174,-0.0131,-0.0133,-0.0227,-0.0237,-0.0246,-0.0266,-0.0285,-0.0289,-0.0292,-0.0391,-0.0392,-0.0392,0,0,0,0,0,0,0.0038,0.0029,-0.005,-0.0022,-0.0033,-0.008,-0.0093,-0.0101,-0.0114,-0.0174,-0.0184,-0.0136,-0.0227,-0.024,-0.0277,-0.0271,-0.0291,-0.0295,-0.0391,-0.0391,-0.0392,-0.0318,0,0,0,0,0,0,0.0041,0.0031,0.0028,-0.0021,-0.0035,-0.0072,-0.0093,-0.0102,-0.0121,-0.0124,-0.0182,-0.0192,-0.0228,-0.027,-0.0281,-0.0278,-0.0299,-0.0391,-0.0391,-0.0392,-0.0321,-0.0316,-0.0312,0,0,0,0,0,0.0044,0.004,0.0028,0.0019,-0.0038,-0.0072,-0.008,-0.0113,-0.0121,-0.0125,-0.0162,-0.019,-0.0278,-0.0273,-0.0287,-0.0284,-0.0391,-0.0391,-0.0392,-0.0323,-0.0317,-0.0312,0,0,0,0,0,0,0.0082,0.0034,0.002,0.0002,-0.0028,-0.0078,-0.0086,-0.0108,-0.0141,-0.0141,-0.0193,-0.0206,-0.0237,-0.0273,-0.0266,-0.0315,-0.0339,-0.0342,-0.0282,-0.0277,-0.0273,-0.0246,-0.0303,0,0,0,0,0,0.0089,0.0073,0.0028,0.0015,0.0003,-0.0039,-0.0056,-0.0077,-0.0114,-0.0128,-0.0169,-0.0212,-0.0249,-0.0271,-0.0311,-0.034,-0.0365,-0.0348,-0.0343,-0.0339,-0.0327,-0.0361,-0.0357,-0.0392,-0.0392,-0.0392,0,0,0.0099,0.0072,0.0062,0.0022,-0.0003,-0.0013,-0.0049,-0.0069,-0.0075,-0.0136,-0.0155,-0.0199,-0.0254,-0.0282,-0.0299,-0.0311,-0.0342,-0.0339,-0.0335,-0.0325,-0.036,-0.0357,-0.0354,-0.0392,-0.0392,-0.0392,0,0,0.0119,0.009,0.0089,0.0068,0.0034,0.0008,0.0007,-0.0038,-0.0054,-0.0083,-0.0124,-0.0158,-0.0222,-0.0254,-0.0279,-0.0276,-0.0317,-0.0295,-0.0251,-0.0284,-0.0281,-0.0278,-0.0299,-0.0299,-0.0292,-0.0292,-0.0292,0,0.0136,0.0126,0.0084,0.0081,0.0071,0.0024,0.0028,0.0003,-0.0047,-0.0055,-0.0078,-0.0158,-0.0205,-0.0233,-0.0232,-0.0264,-0.0287,-0.0264,-0.0276,-0.0274,-0.0273,-0.0295,-0.0296,-0.0289,-0.0289,-0.0289,-0.029,0,0.0157,0.015,0.0149,0.0131,0.0114,0.0109,0.0072,0.0059,0.0033,0.0004,-0.0029,-0.0094,-0.0137,-0.0162,-0.0198,-0.0214,-0.0234,-0.0264,-0.0283,-0.0265,-0.029,-0.0292,-0.0284,-0.0285,-0.0286,-0.0287,0,0,0.0199,0.0171,0.0173,0.0177,0.0143,0.0134,0.0129,0.011,0.0118,0.0062,0.0063,-0.001,-0.0044,-0.0075,-0.0127,-0.0159,-0.0174,-0.0203,-0.0206,-0.021,-0.0238,-0.0237,-0.024,-0.0208,-0.0208,-0.0208,-0.0255,0,0.0234,0.0245,0.0218,0.0234,0.0239,0.0202,0.0206,0.0182,0.0155,0.0143,0.0078,0.0052,-0.0011,-0.0029,-0.007,-0.0148,-0.0178,-0.0158,-0.0265,-0.0268,-0.026,-0.0242,-0.0182,-0.0218,-0.0258,-0.0258,-0.0259,0,0.0271,0.0273,0.0294,0.0294,0.0295,0.03,0.0303,0.0297,0.0267,0.0247,0.0207,0.0151,0.0098,0.0041,-0.0071,-0.0056,-0.0135,-0.0199,-0.0203,-0.0227,-0.0272,-0.0246,-0.0221,-0.0352,-0.0263,-0.0262,-0.0262,0,0.033,0.0331,0.0351,0.0349,0.0339,0.0353,0.0354,0.0336,0.0346,0.0316,0.032,0.0237,0.0209,0.0096,-0.0036,-0.0056,-0.0155,-0.0202,-0.0275,-0.0276,-0.0257,-0.0256,-0.0358,-0.0275,-0.0275,-0.0275,-0.0275,0,0.0379,0.04,0.0384,0.0399,0.044,0.0412,0.0454,0.0445,0.0443,0.0472,0.0382,0.0389,0.0221,0.0139,0.0002,-0.013,-0.0128,-0.0255,-0.0285,-0.023,-0.0226,-0.0366,-0.047,-0.0277,-0.0277,-0.0276,-0.0276,0,0.0439,0.0427,0.0456,0.046,0.0469,0.0499,0.0527,0.0556,0.0547,0.0583,0.058,0.0507,0.0409,0.0241,0.0067,-0.0063,-0.028,-0.0255,-0.0171,-0.019,-0.0386,-0.0488,-0.0618,-0.0714,-0.0342,-0.0343,-0.0343,0,0.0469,0.0486,0.0507,0.0531,0.0538,0.0576,0.0608,0.0612,0.0646,0.0663,0.069,0.0617,0.0586,0.0338,0.0108,-0.0112,-0.0274,-0.0225,-0.0258,-0.0377,-0.0514,-0.0567,-0.0644,-0.0205,-0.0204,-0.0204,-0.0203,0,0.0524,0.0528,0.0549,0.06,0.0639,0.0682,0.0731,0.0775,0.0791,0.0829,0.087,0.0854,0.0655,0.0477,0.0177,0.0006,-0.0316,-0.0217,-0.0364,-0.043,-0.0471,-0.0582,-0.0195,-0.0196,-0.0197,-0.0197,-0.0198,-0.0198,0.0565,0.059,0.0614,0.0663,0.0711,0.0775,0.0818,0.0878,0.0948,0.1014,0.1013,0.1038,0.081,0.0424,0.0164,-0.0233,-0.0287,-0.0351,-0.0467,-0.0511,-0.0596,-0.0187,-0.0213,-0.0213,-0.0214,-0.0215,-0.0215,0,0.0605,0.0628,0.0673,0.0728,0.0781,0.08,0.0883,0.0922,0.101,0.1124,0.1173,0.1145,0.0827,0.0464,-0.0029,-0.0373,-0.054,-0.0591,-0.0656,-0.0731,-0.0369,-0.0355,-0.0383,-0.0383,-0.0382,-0.0382,-0.0382,-0.0382,0.0628,0.0667,0.0683,0.0767,0.0809,0.0868,0.0912,0.0985,0.1073,0.1206,0.1293,0.1346,0.1188,0.0283,-0.0357,-0.0582,-0.0893,-0.0945,-0.1142,-0.0888,-0.0873,-0.086,-0.0869,-0.1004,-0.1005,-0.1413,-0.1417,-0.1421]}],[{"header":{"parameterUnit":"m.s-1","parameterCategory":2,"la1":30.2991,"la2":30.254,"lo1":-89.0895,"lo2":-89.0444,"dy":0.0017,"dx":0.0017,"nx":28,"ny":28,"refTime":"2024-04-27T21:00:00:Z","depth":"2","parameterNumber":2,"parameterNumberName":"U-component_of_CURRENTS"},"data":[0,0,0,0,0,0,0,0,0,0,0,0,0,0,0,0,0,0,0,0,0,0,0,0,0,0,0,0,0,0,0,0,0,0,0,0,0,0,0,0,0,0,0,0,0,0,0,0,0,0,0,0,0,0,0,0,0,0,0.2769,0.2769,0,0.273,0.2729,0.2728,0.2687,0.2687,0.2686,0.2686,0.2659,0.2658,0.2658,0,0,0,0,0,0,0,0,0,0,0,0,0,0.2845,0.2844,0.2769,0.2769,0.2769,0.273,0.2729,0.2728,0.2687,0.2687,0.2686,0.2686,0.2659,0.2658,0.2658,0,0,0,0,0,0,0,0,0,0,0,0,0,0.2807,0.2843,0.2769,0.2746,0.2743,0.273,0.2729,0.2728,0.2687,0.2687,0.2686,0.2686,0.2659,0.2658,0.2658,0.2663,0,0,0.2656,0.2655,0,0,0,0,0,0,0,0,0.2809,0.2804,0.2749,0.2747,0.2745,0.2715,0.2746,0.2708,0.2687,0.2705,0.2686,0.2685,0.2681,0.2679,0.2668,0.2661,0.266,0.2656,0.2655,0.2655,0.2655,0,0,0,0,0,0,0,0.2812,0.2805,0.275,0.2749,0.2746,0.275,0.2743,0.2738,0.2694,0.2704,0.2701,0.2702,0.2679,0.2668,0.2667,0.266,0.2656,0.2655,0.2655,0.2654,0.2676,0.2677,0,0,0,0,0,0,0.2821,0.2808,0.2752,0.275,0.278,0.2749,0.2741,0.2723,0.2694,0.269,0.2702,0.27,0.267,0.2668,0.2666,0.2689,0.2655,0.2654,0.2654,0.2675,0.2676,0.2677,0,0,0,0,0,0,0.2822,0.2815,0.2753,0.2781,0.2774,0.2748,0.2728,0.2722,0.2717,0.2693,0.2688,0.2703,0.2669,0.2667,0.2666,0.2687,0.2654,0.2653,0.2674,0.2675,0.2677,0.2723,0,0,0,0,0,0,0.2824,0.2816,0.2809,0.2781,0.2773,0.2752,0.2728,0.2722,0.2719,0.2716,0.2693,0.2689,0.2669,0.2667,0.2666,0.2685,0.2653,0.2673,0.2675,0.2676,0.2721,0.2726,0.2731,0,0,0,0,0,0.2827,0.2815,0.2808,0.2802,0.2762,0.2753,0.2749,0.2728,0.272,0.272,0.2705,0.269,0.2678,0.2667,0.2665,0.2685,0.2672,0.2674,0.2676,0.2718,0.2725,0.2731,0,0,0,0,0,0,0.2846,0.281,0.2801,0.2779,0.2774,0.2747,0.2746,0.2737,0.2724,0.2722,0.2698,0.2694,0.2704,0.2689,0.2679,0.2698,0.2675,0.2677,0.2708,0.2714,0.2719,0.2724,0.2652,0,0,0,0,0,0.2849,0.2827,0.2808,0.2793,0.2792,0.2774,0.2769,0.2757,0.2743,0.2736,0.2722,0.2711,0.2711,0.2708,0.2702,0.271,0.2719,0.2723,0.2729,0.2733,0.2736,0.2773,0.2782,0.2684,0.2684,0.2684,0,0,0.2849,0.2832,0.2817,0.2797,0.2788,0.2786,0.2769,0.2765,0.2766,0.2737,0.2735,0.2731,0.2718,0.2726,0.273,0.2716,0.2768,0.2736,0.274,0.274,0.2777,0.2786,0.2795,0.2686,0.2686,0.2685,0,0,0.2847,0.283,0.2815,0.2816,0.2811,0.2801,0.2806,0.279,0.2785,0.2786,0.2772,0.278,0.2768,0.2767,0.2765,0.2798,0.2798,0.2799,0.2825,0.2862,0.287,0.2878,0.2912,0.2922,0.2798,0.2798,0.2799,0,0.2853,0.2826,0.2815,0.2816,0.2814,0.2812,0.2809,0.2811,0.2798,0.2803,0.2791,0.2799,0.2789,0.2809,0.2817,0.2811,0.283,0.2801,0.2869,0.2877,0.2884,0.2917,0.2928,0.2801,0.2801,0.28,0.28,0,0.284,0.283,0.2829,0.282,0.2825,0.2822,0.2828,0.284,0.2838,0.2837,0.2859,0.2851,0.2857,0.286,0.2844,0.2891,0.289,0.2876,0.2854,0.2896,0.2929,0.2939,0.2805,0.2804,0.2803,0.2802,0,0,0.2804,0.2813,0.2811,0.2813,0.2824,0.2821,0.2846,0.2857,0.2873,0.2882,0.2902,0.2912,0.2918,0.2917,0.2913,0.2937,0.3004,0.2927,0.2928,0.2963,0.3091,0.3099,0.3111,0.3005,0.3007,0.3008,0.3098,0,0.2791,0.279,0.2798,0.28,0.2797,0.2822,0.2841,0.2864,0.2882,0.2908,0.2929,0.2943,0.2938,0.2944,0.2977,0.2995,0.3032,0.2981,0.3043,0.3045,0.3048,0.3123,0.2793,0.2846,0.3108,0.311,0.3111,0,0.2757,0.2764,0.2761,0.2784,0.2786,0.2795,0.2829,0.285,0.2905,0.2922,0.2965,0.2979,0.303,0.301,0.3091,0.3062,0.3085,0.3097,0.3101,0.3098,0.3072,0.2844,0.2855,0.3128,0.3127,0.3125,0.3124,0,0.2713,0.2729,0.2723,0.273,0.2763,0.2777,0.28,0.2851,0.2874,0.2939,0.297,0.3027,0.3064,0.3108,0.3155,0.3127,0.3243,0.3204,0.3236,0.3237,0.2962,0.2936,0.3266,0.3266,0.3265,0.3265,0.3265,0,0.2676,0.2669,0.2704,0.2702,0.2706,0.2748,0.2766,0.2808,0.2871,0.2904,0.2977,0.3021,0.3092,0.3165,0.3188,0.3266,0.3281,0.3264,0.327,0.2972,0.2947,0.3186,0.3175,0.3268,0.3268,0.3267,0.3267,0,0.2614,0.2638,0.263,0.2668,0.268,0.2683,0.2737,0.2756,0.2838,0.2892,0.2917,0.3036,0.3141,0.3218,0.3299,0.3317,0.3371,0.3388,0.3044,0.301,0.3328,0.3319,0.3432,0.3434,0.3435,0.3436,0.3436,0,0.2577,0.2571,0.2593,0.2593,0.2606,0.2626,0.2641,0.2718,0.275,0.2893,0.2917,0.3055,0.3121,0.3281,0.3285,0.3347,0.3426,0.3137,0.3029,0.3356,0.335,0.3339,0.3329,0.2673,0.2667,0.2663,0.2659,0,0.2517,0.2523,0.2527,0.2521,0.2528,0.253,0.257,0.2584,0.2687,0.2752,0.285,0.2918,0.3063,0.2991,0.3113,0.3102,0.3101,0.3054,0.3466,0.2711,0.2655,0.2645,0.2656,0.2618,0.2622,0.2625,0.2628,0.2629,0.247,0.2448,0.2454,0.2429,0.2436,0.2413,0.2372,0.244,0.2468,0.2522,0.2673,0.27,0.2761,0.2778,0.2726,0.2707,0.2932,0.2819,0.2825,0.2837,0.2763,0.2715,0.2675,0.2679,0.2683,0.2686,0.2689,0,0.2383,0.2372,0.2362,0.2316,0.2264,0.23,0.2296,0.226,0.2241,0.2346,0.2389,0.2248,0.2205,0.2301,0.2183,0.2239,0.212,0.2185,0.1977,0.2021,0.2059,0.1936,0.1633,0.163,0.1627,0.1625,0,0,0.2345,0.2282,0.2255,0.2137,0.2106,0.2008,0.1964,0.1956,0.2004,0.1994,0.1983,0.2096,0.2232,0.1897,0.1862,0.1733,0.1856,0.1661,0.2505,0.2302,0.2336,0.2427,0.2292,0,0,0,0,0]},{"header":{"parameterUnit":"m.s-1","parameterCategory":2,"la1":30.2991,"la2":30.254,"lo1":-89.0895,"lo2":-89.0444,"dy":0.0017,"dx":0.0017,"nx":28,"ny":28,"refTime":"2024-04-27T21:00:00:Z","depth":"2","parameterNumber":3,"parameterNumberName":"V-component_of_CURRENTS"},"data":[0,0,0,0,0,0,0,0,0,0,0,0,0,0,0,0,0,0,0,0,0,0,0,0,0,0,0,0,0,0,0,0,0,0,0,0,0,0,0,0,0,0,0,0,0,0,0,0,0,0,0,0,0,0,0,0,0,0,-0.0042,-0.0042,0,-0.0128,-0.0129,-0.013,-0.0169,-0.0169,-0.0169,-0.0169,-0.0278,-0.0281,-0.0284,0,0,0,0,0,0,0,0,0,0,0,0,0,0.0056,0.0054,-0.0041,-0.0043,-0.0044,-0.0128,-0.0129,-0.013,-0.0169,-0.0169,-0.0169,-0.0169,-0.0277,-0.0281,-0.0285,0,0,0,0,0,0,0,0,0,0,0,0,0,-0.0004,0.0054,-0.0041,-0.0073,-0.0077,-0.0128,-0.0129,-0.0131,-0.0169,-0.0169,-0.0169,-0.0169,-0.0276,-0.0281,-0.0285,-0.0315,0,0,-0.0299,-0.0301,0,0,0,0,0,0,0,0,-0.0,-0.0007,-0.0067,-0.0071,-0.0075,-0.0138,-0.0135,-0.0194,-0.0169,-0.0134,-0.0169,-0.0168,-0.0234,-0.0242,-0.0258,-0.032,-0.0325,-0.0299,-0.0302,-0.0304,-0.0305,0,0,0,0,0,0,0,0.0004,-0.0004,-0.0075,-0.0069,-0.0074,-0.0096,-0.0103,-0.0147,-0.0184,-0.0137,-0.014,-0.015,-0.0236,-0.0253,-0.0261,-0.0327,-0.0299,-0.0303,-0.0306,-0.0308,-0.041,-0.041,0,0,0,0,0,0,0.0015,0.0,-0.0073,-0.0078,-0.0037,-0.0097,-0.0106,-0.0118,-0.0183,-0.0192,-0.015,-0.0152,-0.0246,-0.0255,-0.0265,-0.0285,-0.0304,-0.0308,-0.0311,-0.041,-0.041,-0.041,0,0,0,0,0,0,0.0018,0.001,-0.0069,-0.0041,-0.0053,-0.0099,-0.0112,-0.012,-0.0133,-0.0193,-0.0203,-0.0155,-0.0246,-0.0258,-0.0295,-0.029,-0.031,-0.0314,-0.041,-0.041,-0.041,-0.0337,0,0,0,0,0,0,0.0021,0.0011,0.0008,-0.004,-0.0054,-0.0091,-0.0112,-0.0121,-0.014,-0.0142,-0.02,-0.0211,-0.0247,-0.0288,-0.03,-0.0296,-0.0318,-0.041,-0.041,-0.041,-0.034,-0.0335,-0.0331,0,0,0,0,0,0.0025,0.002,0.0008,-0.0001,-0.0057,-0.0091,-0.01,-0.0132,-0.014,-0.0143,-0.0181,-0.0209,-0.0297,-0.0292,-0.0306,-0.0303,-0.041,-0.041,-0.041,-0.0342,-0.0336,-0.0331,0,0,0,0,0,0,0.0062,0.0015,0.0001,-0.0018,-0.0047,-0.0097,-0.0105,-0.0127,-0.0159,-0.016,-0.0212,-0.0225,-0.0255,-0.0292,-0.0285,-0.0334,-0.0357,-0.036,-0.0301,-0.0296,-0.0291,-0.0265,-0.0321,0,0,0,0,0,0.0068,0.0053,0.0008,-0.0004,-0.0016,-0.0058,-0.0075,-0.0096,-0.0133,-0.0147,-0.0188,-0.023,-0.0268,-0.029,-0.033,-0.0359,-0.0384,-0.0367,-0.0362,-0.0358,-0.0346,-0.038,-0.0377,-0.0411,-0.0411,-0.0411,0,0,0.0079,0.0051,0.0042,0.0003,-0.0022,-0.0033,-0.0068,-0.0088,-0.0094,-0.0155,-0.0174,-0.0218,-0.0272,-0.0301,-0.0318,-0.0329,-0.0361,-0.0358,-0.0354,-0.0344,-0.0379,-0.0376,-0.0373,-0.0411,-0.0411,-0.0411,0,0,0.0098,0.007,0.0068,0.0047,0.0014,-0.0012,-0.0013,-0.0058,-0.0073,-0.0102,-0.0143,-0.0177,-0.0241,-0.0273,-0.0298,-0.0295,-0.0336,-0.0313,-0.027,-0.0303,-0.03,-0.0298,-0.0318,-0.0319,-0.0311,-0.0311,-0.0311,0,0.0115,0.0105,0.0064,0.006,0.005,0.0004,0.0008,-0.0017,-0.0067,-0.0075,-0.0097,-0.0177,-0.0224,-0.0252,-0.0251,-0.0283,-0.0306,-0.0283,-0.0295,-0.0293,-0.0292,-0.0314,-0.0315,-0.0307,-0.0308,-0.0308,-0.0308,0,0.0135,0.0129,0.0128,0.0109,0.0092,0.0087,0.005,0.0038,0.0012,-0.0016,-0.0049,-0.0114,-0.0157,-0.0182,-0.0217,-0.0233,-0.0253,-0.0283,-0.0302,-0.0284,-0.0309,-0.0311,-0.0302,-0.0304,-0.0305,-0.0306,0,0,0.0177,0.0148,0.0151,0.0154,0.012,0.0111,0.0106,0.0088,0.0096,0.004,0.004,-0.0032,-0.0065,-0.0096,-0.0148,-0.0179,-0.0194,-0.0222,-0.0226,-0.0231,-0.0258,-0.0258,-0.0261,-0.0228,-0.0228,-0.0228,-0.0276,0,0.0211,0.0221,0.0194,0.021,0.0215,0.0178,0.0181,0.0158,0.0131,0.0119,0.0055,0.0029,-0.0033,-0.005,-0.0091,-0.0169,-0.0199,-0.0178,-0.0286,-0.0288,-0.028,-0.0263,-0.0282,-0.0325,-0.0278,-0.0279,-0.0279,0,0.0247,0.0249,0.0269,0.0269,0.0269,0.0275,0.0278,0.0272,0.0242,0.0222,0.0183,0.0127,0.0074,0.0018,-0.0093,-0.0078,-0.0156,-0.0219,-0.0223,-0.0248,-0.0292,-0.0339,-0.0332,-0.0284,-0.0283,-0.0283,-0.0283,0,0.0306,0.0306,0.0326,0.0323,0.0313,0.0327,0.0328,0.031,0.032,0.029,0.0294,0.0212,0.0184,0.0072,-0.0059,-0.0078,-0.0178,-0.0224,-0.0296,-0.0297,-0.0346,-0.035,-0.0297,-0.0297,-0.0297,-0.0297,-0.0296,0,0.0354,0.0375,0.0358,0.0373,0.0413,0.0385,0.0427,0.0418,0.0416,0.0444,0.0355,0.0362,0.0196,0.0114,-0.0022,-0.0153,-0.015,-0.0277,-0.0307,-0.0321,-0.0322,-0.0317,-0.0318,-0.0298,-0.0298,-0.0298,-0.0297,0,0.0413,0.0401,0.0429,0.0433,0.0442,0.0472,0.05,0.0528,0.0519,0.0555,0.0552,0.0479,0.0381,0.0214,0.0042,-0.0087,-0.0228,-0.0277,-0.0273,-0.0301,-0.0337,-0.0334,-0.0364,-0.0365,-0.0365,-0.0365,-0.0365,0,0.0443,0.0459,0.0481,0.0504,0.0511,0.0549,0.0581,0.0585,0.0618,0.0634,0.0661,0.0587,0.0545,0.0299,0.0045,-0.0183,-0.0198,-0.0331,-0.0374,-0.0316,-0.0342,-0.034,-0.0337,-0.0415,-0.0416,-0.0416,-0.0417,0,0.0497,0.0502,0.0523,0.0573,0.0612,0.0655,0.0703,0.0747,0.0762,0.0785,0.0825,0.0798,0.0578,0.0329,0.0019,-0.0137,-0.03,-0.0347,-0.0294,-0.0385,-0.0365,-0.0391,-0.0386,-0.0421,-0.0421,-0.042,-0.042,-0.042,0.0539,0.0563,0.0588,0.0636,0.0684,0.0748,0.0789,0.0792,0.0842,0.0821,0.0876,0.0783,0.0598,0.0143,-0.0067,-0.0318,-0.0317,-0.0425,-0.0423,-0.0421,-0.0408,-0.0389,-0.0446,-0.0446,-0.0446,-0.0446,-0.0446,0,0.0556,0.0602,0.0647,0.0701,0.0723,0.0773,0.0855,0.0816,0.0813,0.08,0.0769,0.0577,0.034,0.0139,-0.0251,-0.0444,-0.047,-0.0486,-0.0488,-0.0484,-0.048,-0.0469,-0.0524,-0.0525,-0.0525,-0.0525,0,0,0.0573,0.06,0.0615,0.068,0.0744,0.0744,0.0785,0.0734,0.0688,0.061,0.0559,0.0494,0.0342,0.0055,-0.018,-0.0368,-0.039,-0.0404,-0.0331,-0.0306,-0.0299,-0.0441,-0.0419,0,0,0,0,0]}],[{"header":{"parameterUnit":"m.s-1","parameterCategory":2,"la1":30.2991,"la2":30.254,"lo1":-89.0895,"lo2":-89.0444,"dy":0.0017,"dx":0.0017,"nx":28,"ny":28,"refTime":"2024-04-27T21:00:00:Z","depth":"4","parameterNumber":2,"parameterNumberName":"U-component_of_CURRENTS"},"data":[0,0,0,0,0,0,0,0,0,0,0,0,0,0,0,0,0,0,0,0,0,0,0,0,0,0,0,0,0,0,0,0,0,0,0,0,0,0,0,0,0,0,0,0,0,0,0,0,0,0,0,0,0,0,0,0,0,0,0.1797,0.1797,0,0.1829,0.1829,0.183,0.1862,0.1862,0.1863,0.1864,0.1889,0.1889,0.1889,0,0,0,0,0,0,0,0,0,0,0,0,0,0.1711,0.1712,0.1797,0.1797,0.1798,0.1829,0.1829,0.183,0.1861,0.1862,0.1863,0.1864,0.1889,0.1889,0.1889,0,0,0,0,0,0,0,0,0,0,0,0,0,0.1743,0.1713,0.1797,0.182,0.1823,0.1829,0.1829,0.183,0.1861,0.1862,0.1863,0.1865,0.1889,0.1889,0.1889,0.1866,0,0,0.1889,0.1889,0,0,0,0,0,0,0,0,0.1741,0.1746,0.1816,0.1819,0.1822,0.1846,0.1809,0.1843,0.1861,0.1843,0.1864,0.1865,0.1875,0.1876,0.1875,0.1867,0.1868,0.1889,0.1889,0.1888,0.1888,0,0,0,0,0,0,0,0.1739,0.1744,0.1806,0.1817,0.1821,0.1812,0.1818,0.1815,0.1849,0.1845,0.1848,0.1857,0.1876,0.1875,0.1876,0.1868,0.1889,0.1888,0.1888,0.1888,0.1961,0.1963,0,0,0,0,0,0,0.1744,0.1742,0.1805,0.1807,0.1788,0.1814,0.182,0.1834,0.185,0.1854,0.1856,0.1858,0.1874,0.1876,0.1877,0.1951,0.1888,0.1888,0.1888,0.1959,0.1962,0.1964,0,0,0,0,0,0,0.1742,0.1749,0.1804,0.1778,0.1785,0.1815,0.183,0.1834,0.1872,0.1859,0.1863,0.1894,0.1875,0.1877,0.1913,0.1949,0.1888,0.1888,0.1957,0.196,0.1963,0.2036,0,0,0,0,0,0,0.1739,0.1748,0.1776,0.1779,0.1787,0.1833,0.1829,0.1834,0.1875,0.1879,0.1892,0.1893,0.1876,0.1914,0.1913,0.1948,0.1888,0.1955,0.1958,0.1962,0.2031,0.2041,0.205,0,0,0,0,0,0.1736,0.1762,0.1777,0.1785,0.1818,0.1835,0.1838,0.1859,0.1876,0.1896,0.1913,0.1895,0.1937,0.1915,0.1914,0.1949,0.1953,0.1957,0.1962,0.2027,0.2039,0.2049,0,0,0,0,0,0,0.1737,0.1768,0.1784,0.182,0.184,0.1842,0.187,0.1882,0.191,0.1927,0.1914,0.1917,0.1963,0.1949,0.1925,0.1984,0.1944,0.1948,0.1994,0.2005,0.2014,0.2013,0.1888,0,0,0,0,0,0.1751,0.1785,0.1804,0.1837,0.1852,0.1869,0.1886,0.1901,0.1918,0.1934,0.1944,0.1959,0.1973,0.1985,0.1992,0.2019,0.2013,0.2044,0.2054,0.2062,0.2062,0.209,0.2102,0.1978,0.1978,0.1978,0,0,0.1761,0.1784,0.1805,0.1841,0.1861,0.1883,0.1883,0.1921,0.1945,0.193,0.1981,0.1994,0.1989,0.2025,0.2044,0.2021,0.2097,0.2067,0.2074,0.2069,0.2096,0.2108,0.2118,0.1981,0.1981,0.198,0,0,0.1782,0.1822,0.1851,0.1872,0.1913,0.1921,0.1942,0.1969,0.1994,0.2033,0.2037,0.2075,0.2092,0.2099,0.2101,0.2165,0.2147,0.2177,0.2219,0.2248,0.2257,0.2266,0.2285,0.2295,0.2179,0.218,0.218,0,0.1796,0.1832,0.1862,0.1889,0.1912,0.1944,0.197,0.1994,0.2032,0.2055,0.2064,0.2119,0.2123,0.2159,0.2188,0.2185,0.2198,0.2175,0.2259,0.2267,0.2275,0.2292,0.2302,0.2184,0.2183,0.2183,0.2182,0,0.1821,0.1863,0.1883,0.193,0.1958,0.199,0.2022,0.2064,0.2101,0.212,0.2183,0.2197,0.2227,0.2243,0.2235,0.2296,0.2288,0.2268,0.2227,0.2291,0.2306,0.2315,0.2189,0.2188,0.2187,0.2186,0,0,0.1812,0.1887,0.1897,0.1923,0.1984,0.2001,0.2059,0.2104,0.2144,0.2195,0.2241,0.2287,0.2309,0.2315,0.2322,0.2351,0.2424,0.2343,0.2342,0.2355,0.2492,0.2342,0.2337,0.2426,0.2428,0.2429,0.2484,0,0.1823,0.1876,0.1914,0.1967,0.1992,0.2044,0.2087,0.2138,0.2186,0.2241,0.2279,0.2327,0.2331,0.2361,0.2396,0.2416,0.2449,0.241,0.2432,0.2433,0.2286,0.2342,0.2435,0.249,0.2492,0.2494,0.2495,0,0.1822,0.1861,0.1915,0.1982,0.2,0.2041,0.2117,0.2162,0.2242,0.2281,0.2344,0.2374,0.244,0.2429,0.2503,0.2484,0.25,0.2509,0.2511,0.2346,0.2298,0.2411,0.251,0.2509,0.2508,0.2507,0.2506,0,0.1778,0.1855,0.19,0.1924,0.2007,0.2049,0.21,0.2181,0.2225,0.2316,0.236,0.2432,0.2481,0.2518,0.2557,0.2542,0.2624,0.2595,0.2474,0.2464,0.255,0.254,0.2644,0.2644,0.2644,0.2644,0.2644,0,0.1751,0.1789,0.1889,0.1911,0.1967,0.2036,0.2106,0.2164,0.2253,0.2297,0.2385,0.2421,0.2511,0.2565,0.2582,0.2555,0.2648,0.2486,0.2468,0.2581,0.2574,0.2557,0.2546,0.2646,0.2646,0.2645,0.2645,0,0.1686,0.1755,0.1809,0.1911,0.1948,0.199,0.2103,0.2142,0.2243,0.2306,0.234,0.2443,0.2499,0.2568,0.2629,0.257,0.2566,0.2535,0.2665,0.2653,0.2381,0.2374,0.2389,0.2384,0.238,0.2377,0.2374,0,0.1653,0.1679,0.1797,0.1834,0.1887,0.1966,0.2014,0.2123,0.216,0.2291,0.2301,0.2403,0.2455,0.2417,0.2505,0.2521,0.2497,0.2481,0.2414,0.2374,0.2356,0.2355,0.2354,0.2367,0.2366,0.2365,0.2364,0,0.159,0.1651,0.1699,0.1774,0.1834,0.1886,0.1964,0.1976,0.209,0.2201,0.2195,0.2214,0.2273,0.2307,0.2345,0.2352,0.2478,0.2438,0.2445,0.2382,0.2348,0.2334,0.2337,0.235,0.2352,0.2353,0.2354,0,0.1551,0.1567,0.1645,0.1692,0.1766,0.1779,0.1833,0.186,0.1906,0.2036,0.203,0.2132,0.2235,0.2221,0.2254,0.2252,0.2213,0.2137,0.2159,0.2176,0.2083,0.2008,0.1891,0,0,0,0,0,0.1499,0.1507,0.1553,0.1594,0.166,0.1701,0.1784,0.1836,0.1943,0.1881,0.1944,0.1977,0.1998,0.2059,0.2014,0.219,0.2246,0.2131,0.2177,0.2271,0.2287,0.2198,0,0,0,0,0,0,0.1465,0.1509,0.1518,0.1503,0.1513,0.1565,0.1613,0.1686,0.1654,0.1766,0.1784,0.1867,0.1924,0.2002,0.1978,0.2,0.1991,0.2202,0.2197,0.2261,0.2276,0.229,0.2203,0,0,0,0,0]},{"header":{"parameterUnit":"m.s-1","parameterCategory":2,"la1":30.2991,"la2":30.254,"lo1":-89.0895,"lo2":-89.0444,"dy":0.0017,"dx":0.0017,"nx":28,"ny":28,"refTime":"2024-04-27T21:00:00:Z","depth":"4","parameterNumber":3,"parameterNumberName":"V-component_of_CURRENTS"},"data":[0,0,0,0,0,0,0,0,0,0,0,0,0,0,0,0,0,0,0,0,0,0,0,0,0,0,0,0,0,0,0,0,0,0,0,0,0,0,0,0,0,0,0,0,0,0,0,0,0,0,0,0,0,0,0,0,0,0,-0.0074,-0.0074,0,-0.0127,-0.0128,-0.0129,-0.0158,-0.0158,-0.0158,-0.0158,-0.0246,-0.0248,-0.025,0,0,0,0,0,0,0,0,0,0,0,0,0,-0.0036,-0.0037,-0.0074,-0.0074,-0.0075,-0.0127,-0.0128,-0.0129,-0.0158,-0.0158,-0.0158,-0.0158,-0.0245,-0.0248,-0.0251,0,0,0,0,0,0,0,0,0,0,0,0,0,-0.0068,-0.0037,-0.0073,-0.0095,-0.0098,-0.0127,-0.0128,-0.0129,-0.0158,-0.0158,-0.0158,-0.0158,-0.0244,-0.0248,-0.0251,-0.0271,0,0,-0.0262,-0.0263,0,0,0,0,0,0,0,0,-0.0066,-0.0069,-0.0092,-0.0094,-0.0097,-0.0136,-0.0147,-0.0178,-0.0158,-0.0135,-0.0158,-0.0158,-0.0212,-0.0218,-0.0228,-0.0275,-0.0279,-0.0262,-0.0264,-0.0265,-0.0266,0,0,0,0,0,0,0,-0.0064,-0.0067,-0.0095,-0.0092,-0.0095,-0.0117,-0.0121,-0.0153,-0.0173,-0.0137,-0.014,-0.0145,-0.0214,-0.0224,-0.023,-0.028,-0.0262,-0.0265,-0.0267,-0.0268,-0.0339,-0.0339,0,0,0,0,0,0,-0.0054,-0.0065,-0.0093,-0.0097,-0.0081,-0.0117,-0.0122,-0.0123,-0.0172,-0.018,-0.0145,-0.0146,-0.0219,-0.0226,-0.0234,-0.0253,-0.0265,-0.0269,-0.0271,-0.0339,-0.0339,-0.0339,0,0,0,0,0,0,-0.0053,-0.0056,-0.0091,-0.0082,-0.0088,-0.0117,-0.0119,-0.0124,-0.0135,-0.0178,-0.0186,-0.015,-0.0219,-0.0229,-0.0255,-0.0257,-0.027,-0.0273,-0.0339,-0.0339,-0.0339,-0.0296,0,0,0,0,0,0,-0.0052,-0.0055,-0.0055,-0.0081,-0.0088,-0.0107,-0.0119,-0.0125,-0.0139,-0.0141,-0.0185,-0.0193,-0.022,-0.025,-0.0259,-0.0262,-0.0276,-0.034,-0.0339,-0.0339,-0.0298,-0.0294,-0.0291,0,0,0,0,0,-0.005,-0.005,-0.0055,-0.0058,-0.0086,-0.0107,-0.0112,-0.0134,-0.0139,-0.0144,-0.0167,-0.0192,-0.0254,-0.0252,-0.0263,-0.0267,-0.034,-0.0339,-0.0339,-0.0299,-0.0295,-0.0291,0,0,0,0,0,0,-0.0035,-0.0054,-0.0059,-0.0065,-0.0082,-0.0111,-0.0119,-0.0131,-0.0154,-0.0155,-0.0192,-0.0202,-0.0225,-0.0251,-0.0248,-0.0285,-0.03,-0.0302,-0.0266,-0.0263,-0.026,-0.0247,-0.0279,0,0,0,0,0,-0.003,-0.0035,-0.0056,-0.0061,-0.0067,-0.0091,-0.0102,-0.0115,-0.0138,-0.0148,-0.0177,-0.0206,-0.0232,-0.025,-0.0277,-0.0301,-0.0322,-0.0309,-0.0306,-0.0303,-0.0299,-0.0326,-0.0325,-0.0337,-0.0337,-0.0337,0,0,-0.0026,-0.0037,-0.004,-0.0058,-0.0072,-0.008,-0.0098,-0.0112,-0.0117,-0.0155,-0.0171,-0.0198,-0.0235,-0.0256,-0.0269,-0.0279,-0.0311,-0.0303,-0.03,-0.0297,-0.0326,-0.0325,-0.0324,-0.0337,-0.0337,-0.0337,0,0,-0.0022,-0.0028,-0.0031,-0.0042,-0.006,-0.0073,-0.0074,-0.0099,-0.0108,-0.0127,-0.0151,-0.0174,-0.0218,-0.0241,-0.0259,-0.0256,-0.0291,-0.0267,-0.0246,-0.0272,-0.0271,-0.0271,-0.0294,-0.0296,-0.0268,-0.0268,-0.0268,0,-0.0017,-0.0021,-0.0036,-0.004,-0.0046,-0.0066,-0.0067,-0.0081,-0.011,-0.0114,-0.0126,-0.0177,-0.021,-0.0232,-0.023,-0.025,-0.0269,-0.0256,-0.0268,-0.0268,-0.0268,-0.0292,-0.0295,-0.0266,-0.0266,-0.0266,-0.0267,0,-0.0016,-0.0017,-0.0019,-0.0028,-0.0035,-0.004,-0.0054,-0.006,-0.0071,-0.0086,-0.0107,-0.0146,-0.0175,-0.019,-0.0212,-0.0229,-0.0243,-0.0258,-0.0275,-0.0264,-0.029,-0.0294,-0.0263,-0.0264,-0.0264,-0.0265,0,0,-0.001,-0.0017,-0.0017,-0.0012,-0.0026,-0.0029,-0.0031,-0.0039,-0.0032,-0.0063,-0.0064,-0.0109,-0.0126,-0.0147,-0.0178,-0.0203,-0.0223,-0.0228,-0.023,-0.0247,-0.028,-0.0276,-0.028,-0.0241,-0.0241,-0.0242,-0.0296,0,-0.0005,-0.0002,-0.0009,-0.0001,0.0002,-0.0006,-0.0002,-0.0009,-0.002,-0.0024,-0.0061,-0.0076,-0.0111,-0.0121,-0.0151,-0.0202,-0.0231,-0.0207,-0.0292,-0.0294,-0.0289,-0.0284,-0.0243,-0.0299,-0.03,-0.0301,-0.0301,0,-0.0004,0.0001,0.001,0.0025,0.0026,0.003,0.0043,0.0045,0.0035,0.0028,0.0006,-0.0023,-0.006,-0.0091,-0.0172,-0.0155,-0.0213,-0.0256,-0.0259,-0.0273,-0.0297,-0.0315,-0.0308,-0.0308,-0.0307,-0.0307,-0.0306,0,0.001,0.0016,0.0028,0.003,0.004,0.0051,0.0061,0.0061,0.0076,0.0064,0.007,0.0017,0.0002,-0.0077,-0.0165,-0.017,-0.0255,-0.0276,-0.033,-0.0331,-0.0337,-0.0337,-0.0339,-0.0339,-0.0339,-0.0339,-0.0338,0,0.0018,0.0029,0.0038,0.0047,0.0075,0.0076,0.0106,0.0111,0.0123,0.0146,0.0101,0.0103,0.0005,-0.0055,-0.0148,-0.0242,-0.0245,-0.0323,-0.0344,-0.0318,-0.0315,-0.034,-0.0339,-0.0341,-0.034,-0.034,-0.0339,0,0.0027,0.003,0.005,0.007,0.0082,0.0105,0.0145,0.0167,0.0177,0.0206,0.0206,0.017,0.0094,-0.0011,-0.0134,-0.0208,-0.031,-0.0348,-0.0303,-0.0321,-0.0375,-0.0371,-0.0412,-0.0412,-0.0412,-0.0413,-0.0413,0,0.0031,0.004,0.0071,0.0091,0.0102,0.0137,0.0166,0.0192,0.0218,0.0245,0.0259,0.021,0.0166,0.0009,-0.0115,-0.0285,-0.0316,-0.0369,-0.0381,-0.0366,-0.0382,-0.0378,-0.0374,-0.0413,-0.0413,-0.0413,-0.0413,0,0.004,0.005,0.0069,0.0109,0.0141,0.0181,0.0223,0.0251,0.0285,0.0298,0.0309,0.0235,0.0155,0.0022,-0.0105,-0.0234,-0.0333,-0.0372,-0.0373,-0.0385,-0.0368,-0.0383,-0.0379,-0.0414,-0.0414,-0.0414,-0.0414,0,0.0049,0.006,0.0083,0.0118,0.0162,0.0204,0.0233,0.0269,0.0301,0.0336,0.0337,0.0257,0.0217,0.0048,-0.0074,-0.0191,-0.0232,-0.0279,-0.0285,-0.0286,-0.0237,-0.0196,-0.0202,0,0,0,0,0,0.005,0.0056,0.009,0.0125,0.0171,0.0189,0.0258,0.0285,0.0324,0.0341,0.0345,0.0271,0.0121,0.0057,-0.0061,-0.0108,-0.0273,-0.0252,-0.0335,-0.0419,-0.0418,-0.0382,0,0,0,0,0,0,0.0047,0.007,0.0081,0.012,0.0139,0.0187,0.0227,0.0263,0.0275,0.0308,0.0233,0.022,0.007,0.0178,-0.0074,-0.0108,-0.018,-0.0317,-0.032,-0.042,-0.0419,-0.0418,-0.0381,0,0,0,0,0]}]]